Theta_e
311 311 312 313 315 316 316 317 317 318 318 318 318 319 319 319 320 321 321 321 322 322 322 322 322 322 323 323 323 324 324 324 323 323 322 321 320 320 320 320 320 321 321 326 332 332 330 327 326 330 337 342 345 346 347 349 349 346 343 339 335 335 336 338 341 342 342 342 344 347 347 347 346 347 349 348 350 349 348 349 348 348 347 346 345 344 346 349
310 310 310 311 312 313 314 316 317 318 318 318 318 319 319 319 320 320 321 321 322 322 322 322 322 323 322 323 323 323 324 324 323 322 321 320 320 320 320 320 319 320 320 322 329 333 331 326 325 330 337 342 343 342 345 348 347 342 340 339 337 338 337 337 340 342 342 343 346 347 346 346 346 348 350 348 349 348 347 349 350 350 350 347 343 343 345 348
309 309 309 310 310 311 312 313 315 316 317 318 319 319 319 319 319 320 321 321 322 322 322 323 323 323 322 322 322 322 323 323 323 321 320 321 322 321 320 320 319 319 321 321 324 332 332 327 325 328 335 338 339 339 342 346 346 342 340 341 340 339 337 337 339 340 342 345 346 346 346 346 347 348 348 348 348 347 346 349 350 350 351 349 345 344 345 347
308 309 309 309 309 310 310 311 312 314 315 317 318 319 319 319 319 320 321 321 322 322 322 322 323 322 322 322 321 322 322 323 322 321 322 322 321 322 322 320 319 319 320 321 322 326 328 328 325 325 331 333 333 337 341 343 345 342 341 342 341 339 337 338 338 339 343 345 346 346 345 346 347 347 347 348 347 346 347 349 350 349 350 350 346 346 347 348
308 308 309 309 309 309 310 310 311 312 313 314 316 318 319 319 319 320 320 321 322 322 322 322 322 322 322 322 321 322 322 322 321 321 322 322 320 321 323 322 320 319 319 320 321 322 323 325 325 325 328 329 331 335 338 341 342 340 341 343 341 338 337 338 337 339 343 345 346 346 344 345 348 347 346 347 345 345 347 349 349 347 345 346 346 347 348 349
308 308 309 309 309 309 309 310 310 310 311 312 314 315 317 319 319 320 320 321 321 322 322 322 322 322 322 322 322 322 322 321 321 322 322 322 321 320 323 324 321 321 320 319 321 322 323 323 325 328 328 327 330 333 335 339 340 339 340 342 341 339 338 338 337 339 343 344 346 345 345 346 347 346 346 346 344 344 345 347 349 346 340 341 344 346 347 349
307 307 308 308 309 309 309 310 310 310 311 311 312 313 314 316 318 320 320 320 321 321 322 322 322 322 322 322 321 321 322 322 321 322 322 323 324 323 322 322 321 322 322 320 320 322 323 323 326 328 329 328 330 332 333 335 338 339 339 339 340 339 339 338 337 339 343 344 346 345 346 347 347 345 345 345 342 342 343 345 347 345 343 340 344 347 347 347
307 307 307 308 308 308 309 309 310 310 310 311 311 311 312 313 316 318 320 320 321 321 321 321 322 322 322 322 322 322 322 322 322 323 323 322 325 326 323 322 321 322 323 321 320 322 323 325 327 327 328 328 329 331 331 332 334 336 337 337 337 338 338 338 337 340 343 344 345 345 346 347 347 346 345 344 343 343 343 344 345 346 346 343 344 347 347 347
307 307 307 308 308 308 309 309 309 310 310 311 311 311 312 312 313 315 317 319 320 321 321 321 322 322 322 323 323 323 323 322 322 324 324 323 323 324 325 324 323 323 323 323 320 322 324 326 326 326 327 327 328 331 330 330 332 333 337 336 335 336 337 338 338 341 342 344 345 345 346 347 346 346 345 344 344 345 345 345 345 346 348 346 345 346 346 347
307 307 307 308 308 308 308 309 309 309 310 310 311 312 311 312 312 313 314 316 318 319 320 321 322 322 322 324 324 323 322 322 323 325 326 326 323 323 325 324 323 323 323 323 321 322 324 325 325 325 326 327 329 330 329 330 330 330 334 335 334 336 338 338 338 341 342 343 345 345 345 346 346 344 344 345 345 345 347 348 346 347 349 348 347 348 347 347
306 306 307 307 308 308 309 309 310 310 310 310 311 311 312 312 312 312 313 314 315 316 318 320 321 321 323 324 324 323 321 321 325 327 326 327 324 322 325 324 321 322 324 323 321 321 323 324 323 324 327 329 329 329 328 329 328 328 332 334 335 337 338 338 339 341 341 342 345 346 344 345 345 344 344 346 346 347 349 350 349 350 351 350 350 350 349 348
306 306 306 307 307 308 309 309 310 310 310 311 311 311 311 312 312 312 313 313 313 314 316 318 320 322 323 324 324 323 320 322 325 326 326 327 326 323 325 325 319 321 325 323 321 321 323 324 324 324 327 328 329 328 327 328 327 329 332 336 338 338 338 338 339 341 341 341 344 345 343 343 345 344 346 346 347 349 350 352 352 352 352 351 352 351 351 351
306 306 306 306 307 307 308 308 309 310 310 311 311 311 311 312 312 313 313 313 312 313 314 317 320 323 324 324 324 321 321 322 323 324 326 326 325 323 325 325 320 321 324 322 320 321 323 324 325 327 327 328 329 327 328 330 331 334 336 338 339 338 337 339 339 340 341 341 344 344 338 341 345 345 347 347 348 351 351 353 353 353 353 352 352 352 352 352
306 306 307 307 307 307 307 308 308 309 310 311 311 312 312 312 312 313 313 313 312 313 315 318 322 324 324 323 322 323 322 322 323 325 325 325 324 323 325 326 322 321 322 321 321 321 323 324 326 328 326 326 327 326 332 335 335 338 337 338 340 335 335 341 341 340 343 342 345 342 334 338 343 345 348 349 349 351 351 353 353 353 354 353 353 352 352 353
306 306 307 307 308 308 308 308 308 308 309 310 311 312 312 312 312 313 313 312 312 313 317 321 323 324 325 325 322 323 323 324 325 326 325 325 324 324 325 326 324 321 321 322 322 322 322 323 325 326 324 325 325 328 335 336 337 339 334 334 338 334 336 342 342 341 344 343 344 341 335 338 343 345 349 350 350 351 351 353 353 352 353 352 353 352 352 353
305 306 306 307 307 308 308 308 308 309 309 309 310 311 312 312 312 313 313 312 313 316 319 322 323 324 324 324 323 323 324 325 327 326 325 325 326 326 325 325 325 323 322 323 323 322 323 322 323 323 323 325 324 329 336 334 336 339 333 331 335 335 337 341 342 343 344 344 343 340 338 341 344 346 350 350 350 351 351 353 352 352 352 352 352 352 352 352
304 304 305 306 307 307 308 308 309 309 309 309 310 311 312 312 313 312 313 314 315 319 321 323 324 324 323 323 323 323 323 325 326 326 325 324 326 326 325 325 325 325 324 323 322 322 322 322 322 322 323 324 327 332 332 329 330 334 335 334 336 337 337 339 341 344 345 344 343 342 341 343 346 348 350 351 351 351 351 352 352 352 351 352 352 352 352 352
303 304 304 305 306 307 307 308 309 309 309 309 309 311 312 312 313 313 314 317 320 321 322 323 324 323 322 322 324 324 322 322 323 325 324 324 327 327 326 325 325 325 324 323 323 323 322 322 323 323 323 323 329 333 327 327 331 331 333 333 334 337 338 339 341 343 344 344 343 343 342 343 346 349 350 351 352 351 351 352 352 352 352 352 352 352 352 352
303 304 304 305 306 306 307 307 308 308 309 309 309 311 311 312 313 315 319 321 322 323 322 324 325 323 321 321 323 322 321 321 320 321 322 323 326 328 326 326 325 324 323 323 322 323 322 322 322 322 322 323 328 333 329 332 336 335 335 334 333 334 337 341 342 343 346 345 344 344 343 343 347 348 349 351 352 351 351 352 352 352 352 353 352 352 353 351
303 303 303 304 305 306 306 307 308 308 308 309 309 310 311 313 314 316 318 317 318 318 317 319 320 319 319 320 320 320 320 320 320 320 321 323 326 327 325 324 324 323 322 322 321 322 322 322 322 321 322 323 327 333 333 336 339 338 337 336 336 335 336 342 342 342 346 345 345 346 345 344 347 348 349 350 351 352 352 352 352 353 353 353 353 353 353 350
302 303 303 304 305 306 306 307 307 307 308 309 309 308 310 312 314 314 313 313 313 314 314 315 316 316 318 318 319 319 319 319 320 321 322 324 326 326 325 322 321 322 321 321 321 321 322 321 322 322 323 324 325 330 334 336 338 338 336 335 336 335 336 341 341 341 345 345 345 346 345 345 347 348 350 351 350 351 352 352 352 352 352 353 353 353 353 351
302 302 303 303 305 305 306 306 307 307 308 308 307 307 309 311 312 310 310 312 313 313 314 315 315 316 318 319 319 318 318 319 320 320 321 323 325 326 325 321 321 323 319 319 321 320 321 321 322 323 323 324 325 327 330 335 338 338 336 334 333 334 335 336 339 342 344 344 344 345 344 345 346 347 350 351 350 351 352 351 351 352 352 352 352 353 353 352
302 302 302 303 304 305 305 306 307 308 307 307 307 308 310 312 311 308 308 311 313 314 315 315 316 316 318 320 319 318 318 319 320 320 321 321 323 325 324 322 321 322 319 319 321 320 319 320 322 322 321 323 325 325 327 332 337 337 335 333 331 334 334 332 336 342 343 342 343 344 344 344 345 346 349 351 351 351 351 351 351 351 351 352 351 352 352 352
302 302 302 303 303 305 305 305 307 308 306 307 308 309 310 311 310 307 309 312 313 315 317 318 318 318 320 320 320 319 319 320 320 320 321 321 323 325 324 323 321 321 320 320 321 320 320 321 322 321 321 324 325 325 326 329 332 335 335 334 332 334 335 334 336 341 342 340 342 342 339 340 345 347 348 350 350 350 350 350 350 350 350 351 350 351 351 351
302 302 302 302 303 304 305 305 307 307 306 308 309 310 310 309 308 307 311 315 316 317 319 320 319 319 321 321 320 320 320 320 320 320 321 323 325 325 324 323 322 323 320 318 319 320 321 321 321 320 322 325 325 325 327 327 329 331 334 335 334 335 337 338 339 339 336 335 340 340 333 334 343 347 347 349 350 349 350 350 350 350 349 349 350 350 350 350
302 302 302 302 303 304 305 306 306 305 306 309 309 309 309 307 308 308 313 318 318 320 321 320 321 322 322 322 321 321 321 322 322 321 321 323 325 326 325 322 323 324 319 318 320 320 321 320 320 322 322 324 326 326 327 328 327 327 331 332 333 335 336 337 339 335 331 332 339 341 332 331 338 344 347 349 351 350 350 350 350 350 349 349 349 349 349 349
302 302 302 302 303 303 304 305 305 305 306 307 308 307 307 307 307 311 316 318 317 320 322 321 322 323 322 322 322 321 321 321 322 322 321 323 324 326 326 323 323 322 319 319 320 319 320 320 320 322 322 324 325 325 327 329 326 325 329 330 331 334 334 337 338 333 333 335 338 341 336 331 331 339 348 350 351 352 351 350 350 351 350 349 348 348 348 348
302 302 302 302 302 302 303 304 305 305 306 306 307 307 307 307 308 313 317 316 318 322 324 323 322 322 322 322 322 322 322 321 323 323 322 322 324 325 325 324 324 322 320 321 320 319 321 321 321 322 322 323 324 326 327 328 327 327 328 329 331 333 335 338 336 332 335 334 332 337 337 332 330 337 347 349 350 352 352 351 350 351 351 350 349 348 348 348
302 302 302 302 302 303 302 303 305 305 305 306 306 306 307 307 310 315 317 315 319 323 322 322 321 321 322 323 323 323 322 322 322 323 324 324 324 325 325 325 324 323 321 322 322 321 321 321 322 322 322 322 324 326 326 327 328 327 326 327 329 333 336 338 335 333 334 331 330 335 336 332 330 335 343 347 348 351 352 351 350 351 351 350 350 348 348 348
302 302 302 302 303 303 303 304 305 305 305 305 306 306 307 311 315 317 317 316 319 321 321 321 320 320 322 323 323 323 323 323 322 324 324 325 325 324 324 324 323 323 321 322 323 323 322 322 322 322 323 324 324 325 325 327 327 325 326 327 328 332 336 337 336 335 332 329 329 333 336 333 328 331 342 347 348 349 349 351 351 351 352 351 350 349 348 349
302 302 302 302 302 303 303 305 305 305 305 305 306 306 309 315 317 317 318 318 317 319 321 321 320 320 321 322 322 322 324 323 323 324 325 325 324 322 323 323 322 323 321 320 321 322 322 322 322 322 322 324 324 324 325 327 325 325 328 327 326 329 331 331 331 332 329 327 328 332 337 334 326 329 341 347 348 348 348 349 349 349 351 351 350 350 349 349
303 302 303 302 302 303 303 304 305 305 305 305 305 307 312 315 315 316 319 318 316 319 321 320 320 321 320 320 320 322 323 323 323 324 325 325 324 323 324 324 323 322 320 319 319 319 321 323 323 321 322 324 324 324 324 325 325 326 328 325 323 323 325 326 326 328 327 326 328 331 335 334 330 333 341 345 344 344 345 347 348 349 350 350 350 349 349 349
303 303 303 303 303 304 304 304 305 305 305 305 305 309 314 314 315 316 317 317 318 319 320 319 319 320 320 319 320 321 323 323 323 323 324 324 324 324 324 323 324 323 320 319 318 317 319 321 321 320 321 324 324 322 322 323 325 325 325 323 322 322 322 324 325 326 326 325 327 332 334 332 331 336 342 342 341 342 344 345 346 347 349 349 349 349 348 348
303 303 303 303 303 304 304 304 305 305 306 305 306 311 314 314 316 318 316 316 318 318 319 319 319 320 320 319 320 321 321 322 322 322 323 324 324 324 323 321 322 324 322 319 318 317 317 318 320 321 322 323 324 323 324 326 325 326 327 326 323 322 321 322 323 323 323 325 328 332 332 328 328 334 341 342 340 341 341 342 344 345 346 346 347 348 347 348
303 303 303 303 304 305 306 307 309 310 309 306 307 311 313 313 316 317 317 317 317 318 318 318 319 319 319 320 321 321 321 321 322 322 323 323 323 324 324 322 321 322 321 319 318 318 316 317 320 321 321 322 324 324 326 327 324 325 328 326 323 325 325 323 323 324 323 324 328 331 331 331 334 337 341 339 339 340 340 341 342 342 344 345 345 346 347 347
303 304 303 305 307 308 310 311 313 315 312 306 307 310 311 312 314 316 319 320 318 318 318 317 319 318 317 319 321 321 320 321 321 321 322 323 323 324 324 323 321 321 322 321 319 319 316 317 322 321 320 322 323 324 325 324 323 324 324 323 324 328 328 325 322 325 324 321 326 330 329 331 334 334 339 340 339 341 342 342 341 342 344 345 345 346 346 346
303 303 303 308 311 311 311 311 313 316 313 307 307 309 309 311 312 315 319 319 316 316 317 316 318 318 317 317 319 320 320 319 320 320 321 321 322 323 323 323 321 321 322 323 321 321 318 317 322 323 321 321 323 324 324 325 325 324 322 323 326 326 329 330 325 324 323 320 324 329 326 326 326 327 338 343 339 339 342 342 341 342 344 344 344 345 344 345
301 301 304 311 314 313 311 311 315 315 310 306 307 310 310 310 311 314 315 315 314 315 316 315 317 318 317 316 318 319 319 317 318 320 319 320 321 322 323 323 322 321 323 323 322 322 320 316 319 323 322 321 322 322 322 324 325 323 323 327 326 322 324 330 325 323 322 320 322 326 326 326 324 326 333 338 340 343 345 346 342 340 343 344 344 345 344 343
300 301 305 311 315 314 311 312 314 312 308 307 308 310 311 310 311 312 313 314 314 313 313 314 316 317 317 318 317 318 318 317 318 319 318 319 321 322 323 324 322 321 322 323 322 322 321 318 318 321 323 322 322 320 318 320 322 323 325 326 326 324 325 327 325 322 322 321 321 323 324 325 327 332 335 335 341 347 348 351 346 341 343 344 344 345 344 343
300 301 305 310 313 312 309 310 311 308 307 309 308 308 311 311 311 312 312 313 314 313 313 314 315 316 317 318 317 317 319 319 318 319 318 320 320 320 322 322 323 322 321 322 322 323 323 320 318 320 321 320 320 320 319 320 322 321 322 322 323 325 325 325 325 323 321 322 322 322 321 323 331 340 341 339 343 345 347 351 350 345 343 343 343 344 344 342
300 303 307 309 307 307 306 308 310 308 308 310 309 307 309 310 311 312 311 313 313 313 313 314 315 316 316 316 316 317 319 318 318 319 319 319 320 321 321 322 323 322 319 321 322 322 324 322 319 318 318 317 319 322 322 322 323 322 322 323 322 324 323 321 323 324 322 322 323 323 320 321 332 341 342 344 343 340 343 346 345 345 344 342 343 341 341 341
302 304 306 306 305 307 307 307 311 311 309 309 310 309 310 312 312 312 312 312 312 313 313 313 314 315 314 314 315 315 316 316 317 318 318 319 320 321 322 322 322 321 321 321 321 322 326 326 321 319 319 321 322 323 323 321 323 323 323 325 325 326 323 318 320 323 322 323 324 323 320 322 337 347 341 342 343 338 340 343 341 343 342 340 341 340 341 340
304 304 303 306 310 311 309 308 311 313 310 311 312 312 313 315 315 314 312 312 313 313 313 313 314 314 314 314 314 315 315 315 316 317 318 320 321 321 322 321 320 321 322 322 321 323 326 326 322 319 322 324 322 322 322 322 322 321 322 325 324 325 324 322 327 329 325 322 322 322 319 322 340 357 347 342 342 338 338 340 341 342 341 338 339 339 339 339
304 304 304 310 314 312 309 310 312 312 312 314 314 313 315 316 316 316 315 315 316 315 314 315 315 314 314 315 315 316 316 315 317 318 318 321 321 321 322 321 320 322 322 322 324 324 323 326 324 319 319 321 320 321 321 321 322 320 322 325 324 326 326 325 333 334 325 322 323 321 319 321 339 357 350 343 340 336 336 339 340 343 342 341 340 339 339 339
305 306 306 310 313 312 310 311 313 313 313 314 314 314 315 315 316 317 317 317 318 317 317 318 318 317 316 316 316 318 317 316 318 320 320 321 321 322 323 322 323 324 323 325 327 323 325 329 325 319 318 318 318 319 320 321 322 322 323 324 323 326 325 324 328 326 323 327 327 321 319 325 341 352 348 345 343 340 340 340 340 341 341 341 340 338 339 340
306 307 308 311 314 313 312 313 314 313 313 314 315 315 315 315 316 316 317 317 318 319 319 319 319 319 319 319 319 319 320 319 319 321 322 321 322 324 326 326 327 327 328 331 331 327 332 334 328 323 322 320 320 324 326 326 322 319 322 322 322 324 324 326 326 322 325 329 326 325 327 328 334 343 344 347 347 346 345 344 343 343 339 339 341 340 340 340
307 307 310 313 313 313 313 314 314 313 313 314 315 315 315 315 316 316 316 317 318 318 318 318 319 320 320 321 321 320 321 320 320 320 321 321 322 323 323 325 327 328 331 336 336 332 331 328 326 328 327 324 325 327 328 326 322 320 322 321 322 324 324 325 323 325 333 327 319 332 344 332 329 340 345 347 349 352 355 351 346 343 339 340 341 340 340 340
307 308 311 311 310 312 313 313 313 313 314 314 313 313 314 314 315 317 317 317 317 317 318 319 319 320 320 321 321 321 322 322 322 322 321 321 322 321 322 323 326 328 329 331 334 334 328 323 323 326 325 325 325 325 326 326 324 322 323 322 323 324 324 323 324 329 336 326 319 338 353 340 332 337 340 342 347 352 353 348 343 341 341 342 342 341 341 341
307 308 309 308 309 310 310 311 312 313 313 312 312 313 314 315 316 316 315 316 317 316 317 319 319 319 319 320 321 324 325 324 323 324 324 324 323 323 323 323 325 329 329 327 332 332 326 326 328 324 322 324 324 324 325 325 324 323 323 324 324 324 324 324 325 328 332 328 325 340 352 345 335 334 338 340 341 342 343 341 340 341 341 342 342 342 343 342
306 305 306 306 306 307 308 310 312 312 311 311 311 312 313 314 315 313 313 314 316 316 317 318 319 318 317 318 320 323 324 323 323 324 325 325 325 326 326 326 327 330 329 327 331 330 325 328 332 325 320 322 323 323 324 323 323 322 322 324 324 324 324 324 325 328 330 330 330 337 346 344 336 335 340 339 337 338 341 342 341 342 342 343 343 343 343 343
303 302 303 305 305 307 309 310 311 310 309 310 311 312 312 312 312 311 312 313 314 316 316 316 315 315 315 317 319 321 322 320 319 321 322 322 325 326 326 327 327 330 333 331 328 330 329 328 330 326 321 321 322 323 323 322 322 321 320 323 324 322 323 324 325 328 328 331 333 333 334 336 336 338 339 338 338 339 343 345 344 341 341 343 343 342 342 342
302 301 302 304 305 306 307 308 308 308 308 310 312 312 310 310 310 310 312 314 315 315 315 314 313 313 314 317 320 320 319 316 316 317 318 320 322 322 324 326 325 329 339 338 331 331 332 329 328 326 322 321 324 323 321 321 320 319 320 324 324 324 325 324 325 329 329 330 331 329 328 334 341 340 337 336 339 341 344 345 343 341 340 341 342 341 341 341
Wind_Speed
15 15 15 15 15 15 16 16 17 17 17 17 17 17 17 17 17 17 18 17 16 16 16 17 17 17 18 18 19 21 22 22 23 24 26 25 20 18 16 14 13 14 15 15 18 19 19 17 13 12 13 12 8 8 10 9 7 5 2 2 3 5 6 8 11 9 7 10 13 16 17 12 12 11 9 10 10 17 14 7 13 5 4 16 17 28 34 25
16 16 16 16 16 16 16 16 17 17 17 18 18 18 17 17 17 17 18 18 17 17 16 17 18 18 18 19 20 21 23 24 25 26 22 18 16 17 18 17 18 18 19 19 22 24 22 20 17 14 14 10 7 6 7 9 9 5 1 2 3 4 5 7 11 10 8 12 15 16 17 13 13 14 12 10 12 16 12 9 11 7 12 18 21 32 32 27
16 16 17 17 17 17 17 17 17 17 18 18 18 19 18 18 18 17 17 18 18 17 17 17 18 19 20 20 21 21 23 25 27 19 7 3 7 8 11 16 19 20 22 21 22 24 21 17 15 15 14 8 7 8 5 7 9 5 3 3 4 4 6 8 14 14 10 16 18 16 16 13 13 15 12 11 14 15 12 14 15 13 17 19 26 33 31 30
15 16 16 17 17 18 18 18 18 17 18 18 18 19 19 19 19 19 18 17 18 18 17 17 18 20 21 22 23 21 22 23 17 3 5 4 10 7 2 10 18 20 21 20 18 20 20 15 13 14 13 6 7 8 5 9 8 4 5 6 2 5 7 10 17 17 13 18 20 17 15 13 14 14 12 14 13 10 13 18 21 21 23 25 31 33 31 30
15 16 16 17 17 18 18 19 19 19 18 18 18 19 20 20 20 20 19 19 18 18 19 19 19 20 22 24 24 22 18 12 2 4 5 15 15 9 4 4 12 17 20 19 16 17 19 18 15 14 10 4 7 7 5 12 10 3 7 9 4 6 7 10 18 18 16 18 19 18 16 15 16 13 15 20 13 8 17 21 20 24 28 31 35 34 32 29
16 16 16 16 17 17 18 19 19 20 20 19 19 19 19 20 21 21 21 20 19 19 19 19 21 21 23 24 25 21 11 6 5 6 16 20 15 10 8 7 8 13 19 21 19 19 20 20 18 14 9 5 8 8 6 13 13 5 6 9 8 9 7 10 18 19 20 20 18 19 16 17 17 11 17 22 12 5 15 22 20 23 30 34 36 35 34 31
16 16 16 16 17 17 18 18 19 19 20 20 20 20 20 20 21 22 22 22 21 21 20 20 22 22 24 23 24 19 11 15 16 13 13 12 11 9 10 11 10 13 19 24 24 22 22 24 21 15 10 5 7 9 7 11 14 9 7 7 9 11 10 12 20 22 24 24 21 19 16 20 18 11 16 22 13 1 9 22 23 24 29 34 35 34 34 32
17 17 17 17 17 17 18 18 18 19 20 20 21 21 21 21 22 22 23 22 22 22 21 21 21 23 24 22 21 16 14 19 16 11 10 8 9 7 9 12 12 15 20 26 28 27 26 27 25 17 10 6 8 10 9 8 9 10 10 6 5 9 11 15 21 23 24 20 20 19 17 19 16 10 15 20 13 2 7 20 24 25 30 34 35 34 33 31
17 18 17 17 18 18 18 18 18 18 19 19 20 21 22 22 23 23 23 23 23 22 22 22 22 23 23 21 17 11 14 16 12 11 11 11 11 7 7 11 14 16 20 26 28 28 28 27 28 21 9 8 9 9 11 8 6 10 14 9 5 6 10 16 19 22 21 16 20 19 13 13 11 8 11 15 12 6 10 20 24 27 31 34 34 34 34 30
18 18 18 18 18 19 19 19 19 19 19 19 19 20 21 22 23 24 24 24 23 22 22 21 22 22 21 19 10 7 13 14 13 15 15 15 13 9 7 10 13 17 21 27 29 30 31 28 30 22 6 7 9 7 10 9 5 7 11 7 6 6 10 17 19 20 18 16 22 19 10 10 10 7 7 11 13 11 16 22 25 29 31 32 32 32 32 30
20 20 20 19 19 20 20 20 20 19 19 19 18 19 20 22 23 23 24 24 24 23 22 21 22 21 20 16 10 11 17 16 16 18 18 17 13 9 8 9 12 17 22 29 31 32 32 26 27 19 3 5 10 6 7 9 4 4 7 2 1 5 9 15 17 19 16 12 18 16 9 8 8 7 7 12 16 15 20 24 26 29 30 30 30 31 30 29
20 21 21 20 20 21 21 21 21 21 20 19 18 19 19 21 22 23 24 24 24 23 22 22 20 19 18 17 19 19 19 18 19 20 20 18 14 9 6 8 8 13 22 29 32 32 27 19 21 17 5 5 9 5 5 8 5 5 8 4 4 6 8 11 14 19 16 10 16 16 8 6 10 8 6 14 18 17 21 24 26 27 28 29 28 28 27 25
20 21 21 21 21 21 21 22 22 22 21 20 19 19 19 20 21 22 23 23 23 22 22 20 17 18 15 17 25 24 20 20 21 19 18 17 14 8 5 5 4 9 20 26 29 30 24 16 19 15 6 6 5 3 2 3 5 7 7 4 6 6 6 9 10 16 14 11 22 19 5 9 13 10 8 16 21 20 20 21 24 25 25 27 28 28 25 23
20 20 21 21 21 21 22 22 23 23 22 21 20 19 20 20 20 21 22 22 22 21 20 17 16 16 13 20 29 25 18 17 13 7 6 8 10 7 4 3 1 8 18 20 22 26 23 15 16 11 6 7 3 2 3 4 5 8 6 4 5 4 7 8 8 15 11 9 23 19 7 8 11 12 12 18 23 23 21 21 23 23 23 25 28 29 26 24
20 21 21 21 20 21 21 22 23 24 23 21 20 19 20 20 20 21 20 21 21 19 17 15 15 13 13 25 27 15 9 7 1 3 6 4 5 6 6 5 3 8 15 16 15 21 23 17 14 9 6 8 6 2 4 3 3 5 4 4 5 4 7 7 7 15 11 9 18 16 8 6 7 13 16 19 23 24 22 21 23 24 24 24 25 28 26 25
21 22 22 21 21 20 20 21 23 24 23 22 20 19 20 20 20 20 20 19 18 16 14 12 13 11 9 15 14 6 4 2 3 3 6 7 2 5 6 6 7 9 12 15 15 15 17 17 14 10 7 6 6 4 5 4 4 4 4 4 7 6 6 6 7 13 11 12 15 14 7 4 3 11 19 21 23 23 20 21 23 23 25 25 24 26 24 25
22 23 23 23 22 20 20 21 22 24 23 21 20 19 19 20 20 19 18 16 15 14 13 12 12 11 11 14 11 6 4 3 3 2 5 8 3 6 7 8 9 11 12 13 15 12 11 13 11 9 6 3 4 7 6 6 6 4 3 3 6 8 8 8 8 10 12 13 15 14 10 5 3 9 18 22 23 23 20 20 23 23 24 24 24 24 24 25
22 23 24 24 23 22 21 21 22 24 23 21 19 19 19 18 18 17 16 14 12 10 12 11 8 6 9 10 7 5 7 11 11 10 9 8 3 7 9 8 8 12 11 8 12 13 10 8 6 5 5 4 5 9 8 7 8 8 7 5 4 6 9 9 8 10 15 14 14 14 14 12 3 7 14 19 22 23 20 21 22 23 24 23 23 24 25 26
22 23 24 24 24 22 21 22 23 23 24 21 17 17 17 15 13 11 10 10 9 7 7 6 6 6 10 13 15 18 23 23 19 15 13 8 4 8 10 9 9 13 10 5 8 12 9 5 5 6 7 9 9 11 10 8 11 12 10 9 9 8 7 8 6 9 15 13 13 15 14 13 5 6 12 15 19 20 19 19 19 21 22 22 23 23 25 29
22 23 24 24 24 22 21 22 23 23 24 19 15 14 11 10 8 5 8 13 14 13 15 15 15 21 27 30 30 27 25 23 20 16 12 8 5 8 12 12 11 11 8 6 7 9 9 7 7 9 10 11 11 12 10 8 12 11 8 8 11 9 6 8 7 8 15 10 11 12 9 8 4 5 10 14 17 18 19 19 19 20 21 21 23 23 25 32
22 23 24 24 24 22 20 21 22 22 20 15 15 13 6 4 4 4 12 19 19 19 22 24 23 28 35 34 31 27 20 18 19 16 11 9 8 8 11 12 10 6 5 5 5 6 9 9 9 9 11 13 13 12 8 8 11 11 8 7 8 8 5 7 7 9 14 10 8 6 7 8 4 3 9 13 15 18 21 21 20 21 21 21 23 24 27 30
22 23 24 24 24 23 20 20 21 19 14 12 16 11 2 4 5 6 10 14 24 25 23 25 24 29 34 31 30 29 20 13 17 20 15 13 11 8 10 9 7 6 4 4 4 5 8 9 9 8 7 10 9 9 8 9 12 10 8 6 6 5 5 6 6 9 11 9 6 5 8 9 4 4 9 14 17 18 21 22 21 21 21 22 23 24 26 24
23 24 24 24 25 24 19 20 19 13 12 14 15 7 2 3 4 8 7 8 22 28 24 23 22 26 28 23 19 19 18 14 14 19 18 19 15 11 12 8 6 6 6 7 7 7 7 6 8 6 5 9 7 7 9 8 10 8 7 8 6 7 7 5 6 9 10 4 2 5 7 7 4 6 9 15 20 17 18 20 19 21 23 24 25 26 27 27
23 24 25 25 26 24 21 21 14 9 14 16 9 1 3 2 5 9 8 5 12 19 18 14 14 18 17 12 8 11 16 15 13 15 15 21 18 13 13 9 7 7 6 8 8 7 6 1 6 8 7 11 10 8 10 8 7 8 10 11 8 11 12 6 7 8 7 2 2 5 5 7 7 9 9 12 17 17 17 19 20 22 24 23 23 25 28 31
23 23 25 26 26 25 22 17 10 10 15 10 2 4 2 6 9 10 6 4 6 9 9 7 8 10 8 5 6 9 11 12 18 19 15 21 22 14 9 9 7 6 7 8 6 7 6 1 7 11 9 11 10 9 12 10 7 7 10 11 10 15 12 7 12 9 5 5 7 7 6 7 6 10 12 9 12 16 17 18 22 24 24 23 23 24 26 30
23 23 25 26 27 27 23 13 10 15 13 5 1 1 4 8 11 9 3 2 4 4 3 2 4 2 1 5 6 7 6 6 12 17 16 19 22 16 9 6 3 4 8 7 3 4 4 3 7 10 11 12 10 9 12 12 9 6 7 8 9 13 12 11 14 10 6 5 7 12 10 7 4 8 12 11 11 15 16 18 22 25 25 25 26 27 27 29
24 23 24 26 25 27 25 17 15 16 10 4 6 6 6 9 9 5 1 2 3 2 1 2 3 1 2 4 9 9 2 2 3 12 20 20 20 19 12 7 4 3 5 4 3 3 4 7 6 7 11 12 10 10 9 11 10 5 7 11 11 11 13 15 14 11 6 1 4 11 9 6 6 6 7 11 11 12 15 17 21 25 27 27 29 30 30 32
24 22 23 25 24 24 25 22 18 14 8 6 7 6 6 8 6 2 1 2 1 1 1 3 3 1 1 4 14 11 4 3 1 6 20 22 17 15 11 9 9 7 7 6 6 2 4 9 9 9 10 9 8 7 8 11 8 2 6 11 11 11 14 15 13 9 5 3 4 8 6 4 8 4 4 9 12 12 17 19 20 25 29 29 31 32 32 35
25 23 23 25 24 21 23 22 16 12 9 7 7 7 8 7 4 2 1 2 1 1 0 3 2 1 3 6 13 13 7 3 2 1 13 21 16 10 8 11 12 10 9 9 8 3 2 8 12 12 9 8 6 3 9 14 7 3 7 8 6 5 8 9 9 6 4 5 7 9 10 6 7 4 5 6 9 12 16 17 19 25 29 30 31 33 33 33
26 24 22 24 25 23 23 20 14 11 11 9 8 7 6 2 3 2 3 2 2 1 1 2 1 2 4 4 6 10 8 6 2 2 9 14 13 8 7 12 12 8 6 6 9 6 1 3 8 9 7 8 7 4 8 12 7 9 10 8 7 5 4 3 1 3 4 6 8 10 15 11 7 5 7 7 9 13 14 12 15 20 26 30 30 32 32 32
26 24 22 24 25 24 24 20 15 13 12 8 6 3 1 2 2 3 4 1 2 2 2 1 1 1 1 1 3 3 6 6 3 6 8 8 9 6 7 8 6 5 6 6 6 4 4 4 4 4 6 8 8 6 6 7 8 10 8 8 7 4 3 3 2 2 5 6 6 8 14 13 10 6 6 9 11 12 12 12 14 18 26 31 31 32 33 34
27 25 23 22 22 23 23 19 16 15 12 7 5 2 3 3 3 5 2 1 2 1 1 1 1 1 3 3 3 3 3 4 5 8 8 8 8 8 8 8 7 6 6 7 6 3 7 8 2 2 6 10 10 7 5 5 7 8 7 9 8 4 4 4 3 4 6 5 1 3 10 10 9 9 6 8 12 12 14 15 14 16 23 29 32 35 36 36
28 26 24 21 20 21 19 16 15 16 12 8 5 2 3 4 4 6 5 3 1 2 1 1 1 3 4 5 3 2 1 2 5 7 8 8 8 9 8 7 11 10 4 6 8 5 6 5 4 6 5 9 13 9 7 6 7 9 9 10 9 6 6 7 4 2 4 5 1 4 8 6 5 9 10 13 17 17 17 19 15 12 16 23 31 34 35 37
28 27 26 22 18 17 16 15 14 14 11 8 7 3 4 6 3 6 8 7 2 3 1 0 4 5 3 3 3 1 2 2 5 6 7 7 8 9 6 5 10 9 3 6 7 7 9 6 8 10 4 8 14 11 7 8 8 10 7 8 9 6 6 6 5 4 4 3 2 5 6 6 4 2 5 11 14 14 15 18 16 14 15 18 24 28 31 35
29 27 25 21 15 11 12 12 11 11 10 11 8 4 7 7 2 3 6 6 3 4 4 2 4 7 4 2 2 1 2 1 2 4 7 8 8 9 8 7 9 7 5 6 4 5 10 7 5 6 4 9 12 7 6 9 8 7 4 6 9 7 6 3 2 3 3 2 3 5 4 4 3 5 7 7 9 10 12 14 16 18 17 16 20 26 31 33
29 26 21 15 10 9 9 10 10 10 12 13 7 6 7 4 2 3 3 3 3 2 4 3 1 4 4 2 1 0 2 1 1 2 5 6 7 9 9 7 10 11 9 7 3 3 7 5 3 4 4 8 10 8 9 9 7 4 5 7 4 3 6 4 1 1 2 4 4 5 4 3 1 8 9 7 8 10 10 9 13 16 17 18 21 27 32 34
29 28 21 10 7 11 10 11 12 11 15 13 6 7 6 3 4 4 1 1 1 0 1 2 2 3 3 2 2 1 3 2 1 1 3 4 4 8 9 7 10 15 14 11 5 2 5 5 5 8 9 9 10 11 11 11 7 4 7 8 4 1 2 2 3 3 4 8 4 4 7 5 3 4 3 2 7 11 11 9 9 11 16 20 24 30 36 38
30 30 18 5 7 13 11 9 10 14 16 10 8 8 5 5 6 5 3 1 1 0 1 2 2 1 2 2 1 0 4 4 1 2 2 4 3 6 10 7 9 14 17 16 8 2 5 6 4 10 13 9 8 9 10 10 7 1 4 9 6 4 5 2 4 5 6 8 4 4 7 6 6 5 3 4 7 9 10 6 8 11 16 21 24 30 35 39
28 24 11 4 8 12 15 10 8 17 12 6 8 7 5 6 7 8 9 4 1 2 3 4 4 2 2 2 2 2 3 4 2 3 2 4 2 4 8 7 9 14 17 17 9 4 5 7 4 5 7 7 7 8 10 11 6 1 3 8 4 4 5 4 3 4 6 7 4 5 5 4 6 6 6 10 9 8 10 7 8 12 17 22 24 26 31 37
23 15 6 5 10 12 15 11 6 12 6 4 7 5 3 5 8 13 15 9 4 4 4 4 6 5 4 2 3 3 2 3 4 3 2 3 2 3 6 6 6 10 14 16 11 6 5 6 5 2 2 5 7 8 12 13 9 5 7 8 5 2 2 3 3 2 4 6 5 6 7 4 4 5 8 12 11 10 11 9 7 11 17 23 24 25 32 38
19 7 4 7 14 17 15 6 4 5 4 3 3 3 3 4 5 9 13 13 9 7 5 4 6 6 4 3 3 2 2 4 5 5 3 4 4 3 6 8 6 7 8 9 9 7 5 4 6 4 4 7 9 8 11 15 12 10 8 8 9 7 4 6 7 3 3 5 4 5 8 5 6 6 8 10 11 11 12 9 8 11 14 17 21 26 33 37
12 4 7 13 17 17 10 4 4 4 5 4 3 4 5 6 5 5 7 9 9 7 6 5 6 6 5 6 6 4 4 6 6 7 6 6 8 5 3 5 7 8 7 7 9 9 4 3 6 8 7 10 10 7 5 9 11 12 11 10 11 10 9 10 9 4 4 3 1 1 6 5 5 6 8 9 10 11 10 8 9 12 13 15 19 24 30 34
8 12 14 11 11 8 2 4 3 4 5 6 7 8 7 5 4 4 4 5 6 5 5 6 6 7 7 7 8 7 7 7 8 9 8 7 8 10 9 6 7 7 6 5 7 8 4 2 5 7 6 7 7 5 2 2 7 11 12 12 12 12 13 12 6 4 5 6 4 3 6 5 3 2 4 6 8 9 11 11 12 15 16 17 19 23 27 31
12 19 14 5 6 3 3 3 3 3 4 5 6 8 8 7 6 6 6 5 5 4 4 5 6 8 8 7 8 9 7 7 8 10 9 6 5 9 13 9 4 4 6 4 5 8 5 3 5 6 6 6 7 8 6 4 6 8 8 10 13 15 15 8 2 3 6 9 11 8 7 5 3 1 2 4 7 9 13 14 13 14 15 15 17 21 25 28
12 13 9 6 7 3 4 3 3 2 4 5 5 7 8 8 8 10 11 8 7 6 4 4 5 5 5 5 6 8 9 8 7 6 6 6 4 5 7 7 5 5 8 10 8 9 6 5 7 8 9 9 9 10 8 5 5 5 6 9 13 17 18 9 3 4 7 8 11 10 7 4 2 1 2 4 6 9 13 14 12 14 18 17 18 21 24 27
7 5 5 7 6 4 6 2 4 4 4 5 5 5 5 6 6 10 12 10 10 10 7 6 5 4 6 8 8 9 11 11 9 6 5 6 4 2 2 3 5 7 11 13 12 9 2 3 9 11 11 11 10 9 6 5 6 8 9 12 12 15 17 11 5 7 5 4 7 9 7 6 7 6 5 6 7 10 12 10 9 15 23 22 20 21 23 28
3 2 3 5 5 4 3 1 5 6 5 5 4 3 5 7 5 5 8 8 7 9 8 7 8 8 7 7 7 8 9 11 12 10 9 9 6 6 9 11 10 8 8 9 10 9 2 5 13 15 14 15 15 14 11 10 12 13 13 15 15 15 17 15 13 10 7 5 9 8 7 9 11 9 9 10 10 9 8 8 11 19 25 23 20 19 21 26
4 4 5 6 4 3 2 5 8 9 7 6 4 5 8 9 7 4 4 4 4 6 7 5 10 12 7 3 2 4 4 5 9 10 8 9 8 8 11 11 8 4 5 7 4 5 3 7 13 16 17 18 20 19 13 12 13 14 15 17 17 17 18 18 17 12 9 8 12 7 8 10 11 11 11 11 11 10 13 18 20 20 22 21 19 20 23 26
5 6 7 6 5 6 9 11 12 10 8 6 4 6 8 9 7 5 3 5 5 4 7 7 8 7 2 1 0 2 3 3 6 6 4 7 8 7 8 8 5 3 3 5 1 2 2 5 6 11 16 18 21 20 14 13 13 13 15 17 16 18 20 20 20 17 14 15 15 9 10 12 12 12 12 13 17 17 18 20 19 17 20 22 22 22 23 27
5 5 6 7 7 10 13 11 9 7 6 6 5 5 5 5 5 7 6 6 5 2 3 4 3 2 3 2 2 5 6 3 4 4 3 4 5 5 5 4 2 1 3 4 3 1 2 3 1 5 9 13 17 17 14 15 16 15 17 16 15 16 17 18 17 14 13 15 13 10 10 10 10 11 10 9 12 12 11 11 14 18 22 22 22 24 25 29
6 6 7 7 7 8 9 7 6 5 5 5 4 2 4 3 5 10 9 8 10 8 4 3 6 7 4 3 5 6 5 3 6 9 9 8 7 5 3 2 2 3 2 3 4 2 2 2 0 2 5 8 10 14 15 15 15 17 19 17 15 14 13 13 11 9 10 12 9 6 7 7 7 8 7 5 5 7 9 11 15 20 21 22 26 29 30 32
6 6 5 6 5 6 6 6 5 5 4 3 2 4 5 6 7 10 7 5 8 9 5 8 10 8 6 5 4 4 6 9 14 18 18 16 15 14 11 9 7 5 0 2 4 4 2 2 2 1 5 7 7 10 13 11 10 12 14 15 15 12 11 11 10 10 13 13 9 7 8 8 5 4 6 8 8 9 11 13 17 20 22 25 29 32 34 35
Wind_Direction
324 324 324 323 323 323 324 324 323 323 322 321 321 321 322 323 323 323 324 327 330 332 333 333 332 330 331 330 328 327 323 320 314 306 296 285 284 278 260 247 242 236 227 209 198 197 189 181 184 181 163 165 179 180 189 183 160 161 200 232 192 191 190 184 184 175 154 161 166 167 174 165 153 164 146 138 139 145 155 149 160 168 143 166 168 165 163 159
322 322 321 321 320 320 320 319 319 320 319 319 319 319 319 319 319 319 320 322 325 329 331 333 332 332 332 331 329 327 324 321 314 307 299 291 285 272 254 235 229 226 220 214 207 204 197 186 183 180 166 166 176 174 191 184 178 189 189 229 225 199 180 187 189 174 161 165 164 167 174 170 159 158 154 149 148 156 157 149 156 136 139 161 166 165 166 165
321 321 320 319 319 319 317 317 316 316 316 317 316 317 317 316 317 316 315 317 321 324 327 330 331 332 334 332 330 327 326 323 315 308 298 317 326 295 256 228 219 220 218 217 213 212 210 197 190 183 171 170 175 171 183 182 188 204 208 242 243 195 176 185 190 185 175 161 159 166 170 168 159 157 166 161 157 169 172 162 165 157 152 158 165 168 169 169
323 321 320 319 318 318 316 315 314 313 313 312 313 314 314 314 314 312 312 311 314 319 322 327 328 329 332 332 331 329 329 323 313 310 115 17 349 346 284 208 206 215 218 216 214 217 219 213 205 192 182 179 176 178 184 183 188 182 201 242 234 178 189 190 190 187 173 163 162 161 162 163 160 163 167 157 157 185 194 182 177 170 162 160 165 170 171 172
326 323 321 319 318 317 315 314 314 313 311 310 310 310 311 312 310 310 309 307 309 313 316 321 323 326 328 329 329 328 331 328 275 122 347 322 320 309 292 199 195 208 214 212 206 205 211 211 202 193 194 190 171 183 199 191 193 180 215 246 230 176 198 191 185 181 166 161 159 159 165 161 158 170 172 166 169 194 199 193 184 175 169 167 168 171 173 174
328 326 324 322 320 318 316 315 313 312 311 310 309 308 308 307 307 307 306 306 306 307 311 316 319 322 324 326 325 323 323 291 254 305 313 310 310 289 255 242 213 207 209 209 202 192 194 196 192 188 194 198 182 189 194 190 199 221 231 245 233 203 207 183 177 175 160 159 166 170 165 152 158 179 180 181 187 195 198 193 184 180 175 171 171 173 175 178
330 328 327 326 323 321 319 317 314 313 312 310 309 308 306 305 304 303 303 305 304 305 308 311 314 316 320 322 320 316 287 273 288 303 302 303 311 286 249 244 231 215 207 204 200 192 186 187 187 182 182 190 191 197 196 187 197 225 235 239 237 222 216 185 174 173 166 168 173 165 155 160 172 177 177 191 200 229 206 195 187 180 176 174 174 176 178 181
331 330 328 327 325 323 321 319 317 315 313 311 310 309 307 305 302 300 301 302 302 304 305 308 310 311 316 318 316 308 278 284 304 310 295 307 320 293 248 238 230 222 213 208 204 195 184 183 184 177 183 194 183 191 196 188 191 220 232 230 236 225 214 187 174 171 170 169 162 157 164 174 176 162 174 194 199 222 207 193 189 179 175 176 176 178 181 184
331 329 328 327 326 325 322 321 320 318 316 314 312 310 308 305 302 301 300 299 300 301 303 306 306 307 311 312 312 297 284 299 315 314 309 308 313 310 257 233 231 227 218 211 206 196 183 182 184 179 190 195 179 184 188 199 204 213 224 223 216 211 195 181 173 171 168 158 155 162 172 169 160 155 181 197 195 196 184 182 184 179 175 177 179 181 183 185
330 327 326 326 325 324 322 322 320 319 319 317 316 313 309 305 303 302 299 299 299 299 301 301 302 305 305 304 305 279 289 307 311 307 308 302 301 310 279 245 237 229 217 207 200 196 189 189 189 183 193 193 187 189 181 196 212 198 209 221 224 204 178 176 171 169 163 157 167 168 162 156 156 176 201 194 192 188 170 171 179 178 177 179 181 184 186 189
329 327 326 325 325 323 322 321 319 319 319 319 319 315 311 306 303 301 299 298 298 299 299 297 299 299 297 292 262 262 293 303 304 301 297 297 299 301 286 266 244 224 213 203 198 198 196 195 191 185 197 192 185 188 191 204 211 176 173 132 201 172 163 174 168 165 157 156 171 156 131 145 162 207 217 177 182 185 169 167 176 178 178 180 183 185 189 193
328 327 327 326 325 323 322 320 318 318 318 320 319 317 313 308 305 301 299 298 297 299 297 297 297 292 292 281 261 278 304 298 293 294 290 292 292 290 284 279 256 216 208 202 197 196 194 193 192 192 209 188 169 170 215 217 207 179 171 129 124 147 154 172 169 168 163 155 162 141 121 178 194 209 191 171 175 175 171 168 173 177 178 181 184 187 191 195
327 326 325 326 325 323 322 320 318 317 318 319 319 317 313 309 308 302 299 298 297 298 297 297 293 288 286 273 278 297 305 290 289 292 287 284 279 276 263 277 279 206 202 203 200 192 185 184 189 194 208 191 163 158 191 179 166 161 169 156 140 148 168 174 171 172 163 150 159 155 182 214 204 197 158 172 173 165 170 171 173 177 179 182 185 189 193 195
325 324 324 324 324 323 323 320 318 317 318 320 319 317 313 311 309 303 301 298 297 298 296 295 288 287 278 274 292 304 297 287 291 301 303 282 262 246 223 241 263 192 193 198 203 194 186 184 187 193 215 212 194 119 105 108 153 149 147 164 163 173 172 163 172 174 160 152 167 174 229 223 193 184 163 172 173 168 174 174 176 179 181 185 187 192 196 197
327 325 323 323 323 322 322 320 317 316 319 321 319 317 312 310 309 304 302 298 298 296 292 290 284 286 284 285 299 308 296 291 247 74 31 354 254 218 201 201 165 173 181 182 192 194 194 197 199 204 220 219 217 167 132 124 149 155 159 175 191 195 158 151 181 185 168 158 178 186 229 240 186 175 170 173 177 175 178 177 180 182 184 188 189 193 197 198
329 327 325 324 324 323 322 319 316 316 319 323 320 316 312 310 309 306 303 299 297 292 285 283 279 287 291 289 305 319 301 302 145 100 28 11 284 196 174 178 169 169 177 179 183 188 193 198 205 213 208 203 204 179 153 152 163 192 214 182 187 189 160 157 184 198 175 150 183 200 223 256 170 170 172 175 181 181 180 180 183 186 186 189 191 194 197 198
331 329 327 326 325 325 324 320 317 317 320 325 320 315 312 310 310 307 304 297 290 284 280 276 275 285 278 272 283 286 281 280 225 233 338 342 283 193 169 170 176 179 179 184 192 192 187 188 193 203 201 189 183 174 176 186 179 189 216 188 191 185 166 160 168 196 182 160 184 204 226 244 120 159 175 177 182 184 185 184 185 189 190 192 193 195 198 201
331 329 327 326 326 328 328 323 319 320 323 328 323 317 315 311 310 306 297 290 284 278 278 270 260 278 276 262 254 259 287 298 286 266 288 316 258 188 178 177 179 177 170 170 187 191 186 184 187 188 185 182 177 185 196 192 177 183 189 188 200 188 179 173 162 179 183 183 190 193 219 231 157 145 179 182 184 187 191 189 188 190 192 194 194 197 201 204
330 328 326 326 326 329 331 325 322 325 327 330 326 318 317 315 311 301 288 284 273 272 281 245 217 254 270 261 260 275 288 294 290 272 270 284 236 182 175 176 171 166 163 159 176 185 183 173 192 195 188 186 182 193 204 187 178 187 190 190 188 183 184 172 139 160 177 191 201 195 216 226 190 154 182 188 189 193 195 193 193 194 194 195 196 199 202 208
330 328 326 325 324 328 333 326 324 329 331 333 334 327 328 330 321 299 301 294 272 266 271 259 252 263 267 269 274 281 286 287 281 267 259 254 212 166 166 164 156 159 166 168 168 178 185 191 202 198 186 179 181 195 205 188 181 184 190 204 195 182 171 153 124 149 172 190 214 211 232 239 214 177 188 191 194 200 201 198 198 197 197 197 199 200 204 212
332 329 327 325 322 327 333 327 325 331 334 339 344 345 8 22 1 332 322 308 288 278 275 273 268 265 267 271 274 277 281 286 274 254 238 218 190 166 168 159 150 168 178 155 136 157 189 210 207 193 183 178 182 193 194 180 181 183 189 205 203 190 161 146 137 148 167 192 215 213 248 249 242 204 194 193 198 207 205 202 202 201 200 200 202 203 207 213
335 332 329 325 322 326 333 329 327 332 336 341 341 341 63 83 40 348 330 306 297 297 289 283 276 268 272 275 274 271 264 268 265 250 227 204 207 197 172 165 171 172 154 152 142 160 200 220 201 185 189 185 183 186 183 181 184 187 188 194 204 182 122 120 139 145 162 200 209 188 233 241 236 221 207 201 207 215 211 208 206 203 202 204 204 205 209 210
337 335 330 327 323 325 333 331 329 335 339 338 334 332 150 100 31 336 318 281 294 300 291 282 274 270 277 283 280 260 235 231 253 252 226 204 209 198 172 168 182 165 156 186 188 182 201 219 189 170 181 185 177 179 181 184 192 189 179 191 196 169 165 165 154 151 156 190 203 170 230 248 215 219 221 212 214 219 218 215 212 209 209 209 208 208 210 210
339 337 331 329 324 323 333 333 329 344 343 337 334 39 123 9 348 329 309 258 284 296 289 278 267 266 273 283 272 223 216 221 230 237 218 195 186 180 177 165 162 174 176 187 198 204 206 202 158 159 175 187 179 178 181 184 197 193 190 200 182 171 194 184 129 137 142 130 139 157 243 258 210 212 224 211 212 220 220 217 217 218 218 216 214 213 214 217
339 338 332 330 326 323 332 334 328 345 346 348 38 121 70 344 335 328 308 263 275 283 284 276 251 255 255 247 232 206 209 223 229 228 206 187 178 164 165 164 169 191 179 170 190 220 224 138 152 164 180 192 182 180 188 186 190 202 208 210 179 173 187 148 130 142 161 210 200 180 246 261 199 211 224 200 199 215 217 217 220 221 220 218 217 217 217 220
337 339 333 330 327 324 330 336 329 340 353 23 105 294 336 336 330 323 302 275 280 258 264 241 216 225 205 218 204 183 193 228 241 227 205 195 188 171 155 159 182 191 166 159 180 230 219 157 163 173 175 186 191 191 193 188 189 203 201 193 172 167 167 152 158 174 200 225 193 184 224 257 206 213 217 197 197 210 211 217 221 221 219 217 217 219 218 218
334 338 333 329 330 327 329 332 330 338 351 348 315 304 317 330 328 320 254 270 279 223 148 186 200 222 282 225 176 163 197 288 256 213 201 198 189 185 185 165 160 164 138 148 198 214 172 160 176 186 178 185 195 194 192 192 196 190 157 161 161 161 164 163 173 192 203 189 156 185 216 263 258 240 196 191 205 214 215 219 221 220 219 217 218 220 218 219
330 334 331 326 327 327 323 321 326 335 330 322 330 317 315 321 308 275 244 295 291 118 149 191 203 253 263 189 183 193 306 317 286 209 198 195 185 186 197 178 165 159 148 177 206 178 158 182 184 181 188 195 195 184 176 186 199 185 140 156 160 165 169 169 181 197 190 172 192 196 195 242 252 252 125 185 209 221 223 222 220 218 217 216 216 218 219 221
327 331 331 322 320 319 313 312 320 324 309 308 322 312 313 308 260 196 225 270 323 25 188 186 190 176 131 157 196 224 288 288 302 329 189 192 189 185 192 179 165 156 165 194 215 192 169 201 189 181 194 199 193 163 169 185 197 126 129 128 116 136 158 170 190 182 153 201 219 195 185 214 250 219 144 181 212 225 227 223 221 217 215 215 215 217 218 220
325 328 329 322 318 315 309 311 314 305 296 298 307 311 315 286 181 177 200 220 321 310 194 201 184 151 141 154 215 231 244 255 290 108 168 187 191 181 162 165 163 158 167 202 218 214 238 198 182 189 200 187 186 179 180 190 165 121 127 117 88 80 115 127 159 142 156 214 226 199 189 207 253 221 170 187 211 216 220 223 220 215 214 215 214 215 216 216
325 327 327 322 318 312 308 312 310 296 289 291 306 312 241 143 165 214 201 209 313 231 202 246 160 132 164 221 279 232 217 246 234 149 159 185 189 167 139 154 162 164 174 196 205 215 244 213 176 204 200 173 179 191 192 189 156 139 137 136 124 98 116 111 88 174 203 219 226 204 192 205 242 240 182 203 222 217 216 224 217 207 210 212 212 214 214 216
326 325 324 321 313 306 304 305 297 286 284 284 289 270 177 171 226 223 199 321 285 188 134 142 134 327 305 273 253 221 206 227 204 175 170 179 185 179 177 175 169 177 192 194 181 187 225 222 209 221 194 179 184 186 179 176 178 178 156 152 164 157 164 178 175 194 216 226 241 171 184 203 241 255 241 228 239 234 226 230 225 213 209 208 210 212 212 215
327 325 322 319 312 303 296 292 281 274 277 262 237 189 177 222 224 192 192 233 227 67 59 166 257 293 289 293 279 229 234 215 197 192 176 176 186 188 194 186 175 186 196 182 184 187 203 227 232 215 194 188 193 192 183 172 185 196 174 170 188 177 178 190 172 181 219 226 237 144 180 209 245 256 249 238 246 244 232 235 236 226 213 207 211 213 212 216
327 327 323 319 313 300 287 280 269 266 262 224 192 161 194 223 219 179 202 224 260 343 343 53 322 305 282 291 308 291 251 225 181 186 177 175 190 191 199 199 187 187 150 165 192 196 200 218 207 201 181 177 197 209 190 156 174 199 184 187 202 186 193 200 175 193 200 181 141 142 179 210 191 242 244 234 256 263 245 240 231 226 225 214 211 211 212 216
326 327 326 324 315 295 281 267 250 251 231 185 170 192 206 210 201 178 207 225 255 293 301 357 336 308 298 264 302 322 245 253 120 186 190 179 192 193 188 192 193 186 160 177 190 185 211 229 192 193 181 170 193 205 160 151 180 196 169 199 211 184 180 197 188 199 174 148 167 166 209 230 217 306 289 249 271 276 254 240 222 219 218 204 201 205 210 212
325 327 333 332 316 300 284 257 247 243 204 175 178 222 215 212 185 184 202 198 198 262 300 311 237 256 271 233 211 324 266 288 71 217 210 190 201 194 185 187 186 186 183 188 183 156 206 225 159 173 194 184 189 176 169 189 187 160 183 205 207 161 170 180 184 84 136 221 199 172 228 249 249 284 275 250 260 261 250 235 221 215 200 193 199 203 207 209
330 332 337 341 331 326 303 265 257 231 193 180 209 221 207 226 214 208 223 138 157 155 263 259 217 219 243 224 192 15 335 328 115 254 226 194 210 192 189 193 182 190 194 192 201 189 202 212 169 184 205 204 195 182 193 207 179 154 200 182 105 55 191 181 202 167 191 230 213 167 219 227 202 248 270 251 250 251 248 230 213 203 191 198 207 208 210 211
333 332 333 339 340 348 344 296 244 200 184 190 231 229 208 213 209 216 246 225 160 101 166 220 225 232 225 213 185 31 337 329 331 313 236 199 226 187 183 187 181 192 197 195 208 205 198 219 193 194 205 190 174 192 209 208 194 233 195 160 144 200 191 170 213 192 198 229 222 181 214 227 214 214 243 256 253 256 256 222 188 195 198 205 211 211 212 212
333 332 329 309 313 341 2 352 198 181 181 201 221 225 212 210 219 229 238 239 187 211 249 229 219 246 234 226 264 280 314 305 288 311 259 207 226 185 185 192 190 196 194 191 197 160 180 224 214 191 200 173 162 197 216 205 194 332 171 169 185 217 186 182 197 184 203 226 226 205 211 214 211 202 213 239 250 256 257 234 195 202 205 209 211 208 208 209
337 333 305 307 310 319 352 10 158 179 205 222 214 222 207 213 229 233 233 229 204 213 236 217 206 231 243 250 277 262 257 260 253 274 254 210 235 210 201 202 193 195 192 191 193 169 170 219 217 166 145 181 188 199 215 211 193 186 195 187 183 171 158 197 195 165 209 219 212 224 231 203 186 194 205 224 237 239 244 244 223 214 213 214 212 207 208 210
345 335 268 313 315 308 321 340 175 198 243 239 231 234 229 237 241 242 239 231 224 229 234 222 215 226 243 248 246 229 245 260 249 254 261 239 244 231 208 209 192 164 168 186 202 195 178 195 208 193 170 204 212 198 211 222 209 196 200 193 186 179 164 201 214 182 192 221 202 224 246 220 170 187 204 216 232 235 237 240 241 236 224 217 216 216 215 214
346 310 291 306 306 304 306 278 206 210 231 244 270 262 259 265 253 253 246 222 218 226 224 226 226 225 237 243 240 237 250 263 253 246 253 242 238 245 228 197 169 152 154 185 204 197 174 168 206 214 212 216 214 188 198 235 221 205 204 200 197 195 190 207 219 180 168 216 144 197 257 238 170 184 203 213 228 240 246 246 251 254 243 230 225 221 219 219
322 302 312 312 307 306 257 232 237 214 225 253 278 277 273 270 252 250 242 211 209 213 207 210 214 217 223 225 230 228 224 242 245 235 242 246 238 245 242 198 151 162 182 196 195 180 151 154 204 219 231 229 220 192 143 239 217 211 211 203 200 206 208 214 212 169 184 197 167 199 245 219 166 180 212 233 249 258 259 246 242 254 255 245 233 222 220 221
306 302 309 333 345 333 195 244 278 235 255 282 282 276 270 266 262 254 246 230 214 205 207 211 207 216 222 214 222 225 211 223 237 228 232 240 231 247 250 237 207 199 205 206 183 170 171 189 198 211 225 225 221 213 205 199 202 215 218 206 205 209 211 209 142 158 212 196 183 214 236 196 172 164 186 246 261 259 256 245 239 252 256 247 233 225 221 218
313 303 299 326 346 302 232 303 356 317 316 319 295 280 268 259 253 249 251 251 241 232 231 230 218 222 231 226 233 236 224 228 240 225 221 231 241 266 262 242 224 219 227 231 200 171 182 195 186 204 218 216 215 216 213 198 191 213 218 207 210 212 209 199 133 196 217 186 185 218 228 181 174 228 211 234 248 252 254 247 243 251 253 248 236 227 220 215
318 305 296 322 334 280 249 300 22 1 340 335 308 283 263 257 259 256 252 246 240 237 239 244 246 251 248 246 251 248 235 234 240 237 237 245 248 258 276 278 268 255 256 249 217 184 178 196 189 203 217 217 220 219 199 176 190 206 210 206 207 213 211 200 193 214 194 145 198 217 213 202 201 202 216 228 229 241 249 243 237 246 249 247 238 228 221 216
288 286 314 337 326 296 266 24 22 358 329 323 316 299 290 283 287 270 242 233 234 230 227 229 234 239 236 229 238 247 240 236 238 244 255 260 266 280 288 296 292 281 298 286 229 195 191 210 198 203 213 217 224 219 193 189 208 209 207 207 200 201 205 204 213 211 150 156 221 206 187 217 213 197 210 221 220 232 246 236 230 238 242 240 233 227 220 215
264 290 330 346 317 288 307 329 339 332 310 306 295 282 290 286 290 296 258 270 279 224 210 212 218 225 231 216 224 249 246 243 243 244 248 249 256 273 280 282 270 258 343 337 244 192 218 227 205 204 212 215 223 223 200 191 212 211 210 212 200 194 200 207 219 211 166 200 233 196 170 212 217 208 213 216 213 216 225 227 227 232 236 232 225 219 213 210
289 297 314 333 311 292 302 304 309 309 298 301 286 266 280 282 290 319 315 306 305 229 214 221 210 206 228 347 288 226 225 246 248 238 234 242 241 242 257 264 238 197 9 349 317 162 230 248 213 209 217 218 223 225 205 196 212 213 211 210 202 200 200 202 214 211 197 219 232 202 188 209 215 215 217 219 219 218 222 226 225 226 227 221 215 212 207 207
301 305 309 322 310 292 290 288 294 303 300 296 277 263 287 289 306 342 328 286 284 274 220 227 236 351 1 317 254 231 229 267 293 277 284 279 252 228 237 252 227 184 10 358 359 105 217 257 194 198 224 230 229 227 214 207 216 220 216 208 201 204 205 205 211 204 198 218 223 203 203 214 217 220 223 226 226 220 221 221 217 220 218 211 207 208 206 208
295 295 288 298 299 284 281 283 292 302 295 280 267 292 325 319 335 337 314 254 247 262 276 350 356 348 334 278 258 247 247 307 301 279 278 278 271 266 270 291 302 305 353 17 346 323 248 267 34 170 233 241 228 224 220 213 218 228 229 216 198 198 205 209 209 191 189 207 208 195 211 223 221 221 228 234 217 209 216 217 216 219 215 207 207 208 209 212
304 305 272 265 277 279 282 292 291 281 275 278 315 333 314 305 327 330 309 264 255 258 290 3 358 337 308 285 278 293 311 305 289 280 273 263 257 261 261 258 265 271 97 59 327 304 283 298 317 218 252 262 240 219 214 207 214 230 233 224 208 195 197 206 205 196 196 200 199 203 219 225 208 186 215 228 218 215 225 223 220 219 215 213 214 214 214 214